Date String (YYYY-MM-DD hh:mm:ss) UTC,Instrument flags,absolute air pressure of the measurement (hPa),sample flow rate (lpm),inlet stack bypass flow (lpm),air temperature of the measurement (°C),ambient temperature measured by the external sensor (°C),aerosol sample conditioner tube jacket temperature (°C),OPC LED temperature (°C),internal box temperature (°C),relative humidity of the measurement (%),span deviation,mass concentration of particles derived from Lorenz-Mie calculation of OPC scattering (μg/m³),mass concentration of particles derived from Lorenz-Mie calculation of OPC scattering (μg/m³),mass concentration of particles derived from Lorenz-Mie calculation of OPC scattering (μg/m³)
DateTimeUTC,F1_M11,P_M11,Q1_M11,Q2_M11,T1_M11,T2_M11,T3_M11,T4_M11,T5_M11,U1_M11,ZSPAN_M11,X2_M11,X0_M11,X1_M11
2024-05-26 02:00:00,SystemResetWarning,0822.4,5.01,000.00,031.2,030.0,000.0,039.7,032.8,015.5,0000.0,0000.33,0005.23,0000.10
2024-05-26 02:01:00,SystemResetWarning,0822.4,5.01,000.00,031.1,030.0,000.0,039.7,032.8,015.4,0000.0,0000.31,0005.11,0000.09
2024-05-26 02:02:00,SystemResetWarning,0822.4,5.01,000.00,031.1,029.9,000.0,039.7,032.8,015.4,0000.0,0000.33,0005.12,0000.09
2024-05-26 02:03:00,SystemResetWarning,0822.4,5.01,000.00,031.1,029.9,000.0,039.7,032.7,015.4,0000.0,0000.35,0005.18,0000.10
2024-05-26 02:04:00,SystemResetWarning,0822.9,4.99,000.00,031.1,029.9,000.0,039.7,032.7,015.4,0000.0,0000.39,0005.80,0000.12
2024-05-26 02:05:00,SystemResetWarning,0822.8,4.99,000.00,031.1,029.9,000.0,039.6,032.7,015.6,0000.0,0000.39,0004.78,0000.12
2024-05-26 02:06:00,SystemResetWarning,0822.5,5.01,000.00,031.0,029.9,000.0,039.6,032.7,015.8,0000.0,0000.38,0003.79,0000.14
2024-05-26 02:07:00,SystemResetWarning,0822.4,5.01,000.00,031.0,029.9,000.0,039.6,032.6,015.7,0000.0,0000.39,0003.69,0000.16
2024-05-26 02:08:00,SystemResetWarning,0822.4,5.00,000.00,031.0,029.8,000.0,039.6,032.6,015.7,0000.0,0000.41,0003.77,0000.18
2024-05-26 02:09:00,SystemResetWarning,0822.4,4.99,000.00,031.0,029.8,000.0,039.6,032.6,015.7,0000.0,0000.39,0002.12,0000.21
2024-05-26 02:10:00,SystemResetWarning,0822.3,4.99,000.00,030.9,029.8,000.0,039.5,032.6,015.9,0000.0,0000.42,0002.27,0000.24
2024-05-26 02:11:00,SystemResetWarning,0822.2,5.00,000.00,030.9,029.8,000.0,039.5,032.6,015.7,0000.0,0000.50,0002.15,0000.27
2024-05-26 02:12:00,SystemResetWarning,0822.1,5.01,000.00,030.9,029.8,000.0,039.5,032.5,015.6,0000.0,0000.54,0002.10,0000.32
2024-05-26 02:13:00,SystemResetWarning,0822.1,5.01,000.00,030.9,029.8,000.0,039.5,032.5,015.7,0000.0,0000.59,0002.17,0000.35
2024-05-26 02:14:00,SystemResetWarning,0822.1,5.00,000.00,030.8,029.7,000.0,039.5,032.5,015.9,0000.0,0000.66,0002.45,0000.39
2024-05-26 02:15:00,SystemResetWarning,0822.0,5.00,000.00,030.8,029.7,000.0,039.5,032.4,015.8,0000.0,0000.67,0001.93,0000.41
2024-05-26 02:16:00,SystemResetWarning,0821.9,5.00,000.00,030.8,029.7,000.0,039.4,032.3,015.9,0000.0,0000.69,0001.83,0000.43
2024-05-26 02:17:00,SystemResetWarning,0822.0,5.00,000.00,030.7,029.7,000.0,039.4,032.3,015.9,0000.0,0000.72,0001.87,0000.44
2024-05-26 02:18:00,SystemResetWarning,0822.0,5.00,000.00,030.7,029.6,000.0,039.4,032.3,016.2,0000.0,0000.73,0001.90,0000.45
2024-05-26 02:19:00,SystemResetWarning,0821.9,4.99,000.00,030.7,029.6,000.0,039.4,032.3,016.3,0000.0,0000.71,0001.79,0000.45
2024-05-26 02:20:00,SystemResetWarning,0821.9,5.00,000.00,030.7,029.6,000.0,039.4,032.3,016.2,0000.0,0000.72,0002.90,0000.45
2024-05-26 02:21:00,SystemResetWarning,0821.8,5.00,000.00,030.7,029.6,000.0,039.3,032.3,016.3,0000.0,0000.71,0002.78,0000.45
2024-05-26 02:22:00,SystemResetWarning,0821.8,4.99,000.00,030.7,029.6,000.0,039.3,032.3,016.4,0000.0,0000.69,0002.73,0000.45
2024-05-26 02:23:00,SystemResetWarning,0821.8,5.02,000.00,030.6,029.5,000.0,039.3,032.2,016.4,0000.0,0000.71,0002.82,0000.45
2024-05-26 02:24:00,SystemResetWarning,0821.6,5.00,000.00,030.6,029.5,000.0,039.3,032.2,016.3,0000.0,0000.70,0002.79,0000.44
2024-05-26 02:25:00,SystemResetWarning,0821.6,4.98,000.00,030.6,029.5,000.0,039.3,032.2,016.4,0000.0,0000.65,0002.55,0000.43
2024-05-26 02:26:00,SystemResetWarning,0821.9,5.00,000.00,030.5,029.5,000.0,039.3,032.1,016.3,0000.0,0000.62,0002.49,0000.41
2024-05-26 02:27:00,SystemResetWarning,0821.7,5.00,000.00,030.5,029.5,000.0,039.2,032.1,016.3,0000.0,0000.61,0002.51,0000.41
2024-05-26 02:28:00,SystemResetWarning,0821.4,5.01,000.00,030.5,029.5,000.0,039.2,032.1,016.3,0000.0,0000.64,0002.63,0000.42
2024-05-26 02:29:00,SystemResetWarning,0821.4,5.00,000.00,030.5,029.5,000.0,039.2,032.1,016.3,0000.0,0000.66,0002.74,0000.43
2024-05-26 02:30:00,SystemResetWarning,0821.5,4.99,000.00,030.5,029.5,000.0,039.2,032.1,016.4,0000.0,0000.68,0002.38,0000.43
2024-05-26 02:31:00,SystemResetWarning,0821.8,5.00,000.00,030.5,029.6,000.0,039.1,032.2,016.3,0000.0,0000.66,0001.36,0000.43
2024-05-26 02:32:00,SystemResetWarning,0821.7,5.01,000.00,030.5,029.6,000.0,039.1,032.2,016.2,0000.0,0000.66,0001.35,0000.42
2024-05-26 02:33:00,SystemResetWarning,0821.7,5.00,000.00,030.5,029.6,000.0,039.1,032.2,016.2,0000.0,0000.65,0001.29,0000.43
2024-05-26 02:34:00,SystemResetWarning,0821.8,5.01,000.00,030.5,029.6,000.0,039.1,032.2,016.3,0000.0,0000.69,0001.34,0000.44
2024-05-26 02:35:00,SystemResetWarning,0821.8,5.01,000.00,030.5,029.6,000.0,039.1,032.2,016.5,0000.0,0000.69,0001.34,0000.44
2024-05-26 02:36:00,SystemResetWarning,0821.9,4.99,000.00,030.5,029.6,000.0,039.1,032.2,016.5,0000.0,0000.71,0001.35,0000.45
2024-05-26 02:37:00,SystemResetWarning,0822.0,4.99,000.00,030.5,029.6,000.0,039.1,032.2,016.5,0000.0,0000.77,0001.50,0000.46
2024-05-26 02:38:00,SystemResetWarning,0821.9,4.99,000.00,030.5,029.6,000.0,039.1,032.2,016.3,0000.0,0000.79,0001.56,0000.46
2024-05-26 02:39:00,SystemResetWarning,0822.0,5.00,000.00,030.5,029.6,000.0,039.1,032.1,016.3,0000.0,0000.77,0001.45,0000.46
2024-05-26 02:40:00,SystemResetWarning,0822.0,5.00,000.00,030.5,029.5,000.0,039.1,032.0,016.4,0000.0,0000.76,0001.42,0000.47
2024-05-26 02:41:00,SystemResetWarning,0822.1,5.00,000.00,030.4,029.4,000.0,039.1,032.0,016.5,0000.0,0000.79,0002.85,0000.47
2024-05-26 02:42:00,SystemResetWarning,0822.2,5.01,000.00,030.4,029.4,000.0,039.0,032.0,016.4,0000.0,0000.83,0003.55,0000.48
2024-05-26 02:43:00,SystemResetWarning,0822.2,5.00,000.00,030.4,029.4,000.0,039.0,032.0,016.3,0000.0,0000.86,0003.72,0000.50
2024-05-26 02:44:00,SystemResetWarning,0822.1,4.99,000.00,030.3,029.4,000.0,039.0,031.9,016.4,0000.0,0000.88,0003.81,0000.50
2024-05-26 02:45:00,SystemResetWarning,0822.1,5.00,000.00,030.3,029.3,000.0,039.0,032.0,016.4,0000.0,0000.83,0003.71,0000.50
2024-05-26 02:46:00,SystemResetWarning,0822.1,4.99,000.00,030.3,029.3,000.0,039.0,032.0,016.4,0000.0,0000.82,0003.69,0000.49
2024-05-26 02:47:00,SystemResetWarning,0822.2,5.00,000.00,030.3,029.3,000.0,039.0,032.0,016.4,0000.0,0000.82,0003.68,0000.50
2024-05-26 02:48:00,SystemResetWarning,0822.2,4.99,000.00,030.3,029.3,000.0,039.0,032.0,016.2,0000.0,0000.79,0003.58,0000.51
2024-05-26 02:49:00,SystemResetWarning,0822.2,5.00,000.00,030.3,029.3,000.0,039.0,032.0,016.3,0000.0,0000.77,0003.49,0000.52
2024-05-26 02:50:00,SystemResetWarning,0822.2,4.99,000.00,030.3,029.3,000.0,038.9,032.0,016.3,0000.0,0000.79,0003.53,0000.53
2024-05-26 02:51:00,SystemResetWarning,0822.2,5.01,000.00,030.3,029.3,000.0,038.9,032.0,016.3,0000.0,0000.80,0003.50,0000.54
2024-05-26 02:52:00,SystemResetWarning,0822.2,5.01,000.00,030.3,029.4,000.0,038.9,032.0,016.2,0000.0,0000.78,0002.33,0000.55
2024-05-26 02:53:00,SystemResetWarning,0822.1,5.00,000.00,030.3,029.4,000.0,038.9,032.0,016.0,0000.0,0000.76,0002.33,0000.55
2024-05-26 02:54:00,SystemResetWarning,0822.1,4.99,000.00,030.3,029.4,000.0,038.9,032.0,015.9,0000.0,0000.78,0002.28,0000.54
2024-05-26 02:55:00,SystemResetWarning,0822.1,4.99,000.00,030.3,029.4,000.0,038.9,032.0,016.0,0000.0,0000.79,0002.27,0000.53
2024-05-26 02:56:00,SystemResetWarning,0822.0,5.00,000.00,030.3,029.4,000.0,038.9,032.0,016.5,0000.0,0000.81,0002.38,0000.53
2024-05-26 02:57:00,SystemResetWarning,0822.0,5.00,000.00,030.3,029.4,000.0,038.9,032.0,016.6,0000.0,0000.82,0002.42,0000.53
2024-05-26 02:58:00,SystemResetWarning,0821.9,5.01,000.00,030.3,029.3,000.0,038.9,032.0,016.6,0000.0,0000.86,0002.53,0000.52
2024-05-26 02:59:00,SystemResetWarning,0821.9,5.00,000.00,030.3,029.4,000.0,038.8,032.0,016.5,0000.0,0000.91,0003.38,0000.52
